STARLINK-4715, 53801

Orbit data source: Space-Track

STARLINK-4715, 53801 is a payload satellite owned by SpaceX/Seattle (US) in LEO that was launched on Sun, 11 Sep 2022 UTC via an FALCON 9 launch vehicle from the Air Force Eastern Test Range (AFETR). Payload-class satellites include a variety of spacecraft equipped with specific instruments for various scientific and technological missions. These include communications satellites like Starlink; space stations such as the ISS; scientific satellites like the Hubble; Earth observation satellites from companies like Planet Labs, Umbra, and HawkEye 360; GPS; miniature CubeSats for education and research; and military/defense satellites.

Loading next visibility...
Identifier
53801, 2022-111AE
Orbit
LEO
Last TLE update
14 hours ago
Origin
Manufacturer
SpaceX/Seattle
Mission
Operational Commercial Communications
Bus & Motor
STARLINK, Unknown motor
Mass
305 kg wet, ~290 kg dry
Launch date (UTC)
2022-09-11 (3 years ago)
Launch vehicle
FALCON 9
Launch site
Air Force Eastern Test Range (AFETR)
Object type
Payload
Rocket body
Debris
Shape & HBR
Box + 1 Pan, 8.86 m
Radar Cross Section
13.562 m², Large (>1 m²)

Expand to show TLE details & history

TLE from 14 hours ago
0 STARLINK-4715
1 53801U 22111AE  25181.80320443  .00000645  00000-0  58576-4 0  9995
2 53801  53.2188 314.6325 0001198  90.7484 269.3645 15.08839963155795
Epoch: 2025-06-30T19:16Z
TLE epoch observation values (Epoch: 2025-06-30T19:16:36.862Z)
Latitude
-0.00007°
Longitude
106.37108°
Altitude
540.65 km
Speed
7.593 km/s
True Right ascension
20h 58m 31s
True Declination
0° 00' 00"
Sunlit
Object was in full shadow at epoch
Visualization orbit readout
Latitude
-52.9016°
Longitude
3.23589°
Altitude
558.963 km
Speed
7.581 km/s
Apparent Right ascension
11h 12m 04s
Apparent Declination
-53° 50' 28"
Sunlit
Object is in full shadow
Visualization observer readout
Local Sidereal Time
20:47:45
Azimuth
227.963° WSW
Elevation
-62.106°
Doppler factor
1
Orbital elements
Apogee altitude
540.817 km
Perigee altitude
539.159 km
Semi-major axis
6,918.125 km
Eccentricity
0.00012
Inclination
53.2188°
RAAN
314.6325°
Arg. of periapsis
90.7484°
True anomaly
Unknown
Mean anomaly
269.3645°
Eccentric anomaly
Unknown
Mean motion
3.7719 °/min
Orbital period
95.44 mins
BSTAR
0.000058576
Loading maneuver chart data...
Loading SW <> Apogee altitude chart data...
Loading historical data...
Loading historical data...
Loading historical data...
Loading historical data...
Loading historical data...
Loading historical data...
Loading historical data...

STARLINK-4715 Visibility forecast

Observer location: undefined°, undefined°

Span
Click to sort rows by Start time (UTC) header in descending order
Start Az.
Max El. time (UTC)
Max El. Az.
Max El.
End time (UTC)
End Az.
7 mins2025-07-01 11:20:31.131Z215.257° SW2025-07-01 11:23:31.131Z163.107° S40.844°2025-07-01 11:27:31.131Z56.452° ENE
5 mins2025-07-01 13:01:31.131Z293.957° NW2025-07-01 13:03:31.131Z336.204° NNW22.834°2025-07-01 13:06:31.131Z28.368° NE
6 mins2025-07-01 18:02:31.131Z324.743° NNW2025-07-01 18:04:31.131Z23.961° NE40.501°2025-07-01 18:08:31.131Z116.975° SE
|